Location: Unspecified
(42.9300°N, 71.1866°W)
Time: 06:18:32
(UTC-04:00)

GENESIS II - Visible Passes

Search period start: 28 April 2017 00:00
Search period end: 08 May 2017 00:00
Orbit: 494 x 542 km, 64.5° (Epoch: 26 April)

Date Brightness Start Highest point End Pass type
(mag) Time Alt. Az. Time Alt. Az. Time Alt. Az.
28 Apr 5.6 04:21:28 10° NNW 04:25:16 42° NE 04:29:00 10° ESE visible
28 Apr 7.2 21:28:46 10° W 21:31:46 20° NW 21:34:46 10° N visible
29 Apr 5.5 04:06:23 10° NNW 04:10:13 43° NE 04:13:57 10° SE visible
29 Apr 7.3 21:13:46 10° W 21:16:43 19° NW 21:19:40 10° N visible
30 Apr 5.4 03:51:18 10° NNW 03:55:09 45° NE 03:58:54 10° SE visible
30 Apr 7.4 20:58:46 10° W 21:01:39 18° NW 21:04:33 10° N visible
01 May 5.3 03:36:13 10° NNW 03:40:05 47° NE 03:43:51 10° SE visible
01 May 7.4 20:43:46 10° W 20:46:35 18° NW 20:49:26 10° N visible
02 May 5.1 03:21:08 10° NNW 03:25:01 49° NE 03:28:48 10° SE visible
02 May 5.8 04:59:57 10° WNW 05:02:19 16° WSW 05:04:40 10° SSW visible
02 May 7.4 20:28:46 10° W 20:31:32 17° NW 20:34:19 10° N visible
03 May 5.0 03:06:02 10° NNW 03:09:55 51° NE 03:13:44 10° SE visible
03 May 5.8 04:44:57 10° WNW 04:47:13 15° WSW 04:49:28 10° SW visible
03 May 7.3 20:13:46 10° W 20:16:28 17° NW 20:19:11 10° N visible
04 May 4.9 02:50:57 10° NNW 02:54:51 53° NE 02:56:46 26° ESE visible
04 May 6.0 04:29:58 10° WNW 04:31:36 14° WSW 04:31:36 14° WSW visible
05 May 4.8 02:35:51 10° NNW 02:39:46 55° NE 02:39:54 55° ENE visible
06 May 5.2 02:20:45 10° NNW 02:23:51 46° N 02:23:51 46° N visible
07 May 7.4 00:30:51 10° NNE 00:31:00 10° NNE 00:31:11 10° NE visible
07 May 5.6 02:05:39 10° NNW 02:08:12 36° N 02:08:12 36° N visible
